{"data":{"norad_id":66673,"epoch":"2026-09-20T10:24:52.828128Z","epoch_age_seconds":126631,"freshness":"FRESH","line1":"1 66673U 25276H   26263.43394477  .00011055  00000+0  44213-3 0  9998","line2":"2 66673  97.4082 336.1847 0006443  47.6829 312.4954 15.25247010 44952","mean_motion":15.2524701,"eccentricity":0.0006443,"inclination_deg":97.4082,"raan_deg":336.1847,"arg_perigee_deg":47.6829,"mean_anomaly_deg":312.4954,"bstar":0.00044213,"rev_number":4495,"period_min":94.410937412688,"perigee_km":485.61864145438,"apogee_km":494.4689792466,"semimajor_km":6868.1808103505,"source":"CELESTRAK","updated_at":"2026-09-21T09:00:16.120975Z"}}